TJS-5

导读

TJS-5即通信技术试验卫星五号,是中国自主研制的通信技术试验卫星,于北京时间2020年1月7日8时在西昌卫星发射中心,由长征三号乙运载火箭成功发射送入预定轨道。该卫星主要承担卫星通信、广播电视、数据传输等业务任务,同时开展高通量技术试验验证,是中国2020年宇航发射的首飞任务。

基本信息
目录编号:
44978
目录名称:
TJS-5
国际标识:
2020-002A
轨道中心:
EARTH
卫星名称:
TJS-5
卫星全名:
--
卫星状态:
在轨 (已飞行2351 天)
发射日期:
2020-01-07 UTC
国别 :
中国 (CN)
星等 :
--
轨道信息
数据来源 国际轨道数据 AOE轨道数据
星历时间 2026-06-15T05:31:57+0800
4小时前
查看轨道信息
2026-06-11T03:00:00+0800
4天前
查看轨道信息
半长轴 42165.289km 42164.532km
偏心率 0.0007345 0.0007402
轨道倾角 0.018° 0.027°
近地点辐角 106.130° 112.180°
升交点赤经 300.346° 294.600°
平近点角 287.206° 244.882°
近地点 35756.181km 35755.184km
远地点 35818.123km 35817.606km
周期 1436.125分钟 1436.087分钟
每日圈数 1.002698 1.002725
详细信息
使用方式:
暂无
2D轨道图
3D轨道图
轨道高度分析图
轨道倾角分析图
轨道综合分析图
查看轨道综合分析图